Regional Weather Roundup
Issued by NWS

Home | Current Version | Previous Version | Text Only | Print | Product List | Glossary Off
Versions: 1 2 3 4 5 6 7 8 9 10 11 12 13 14 15 16 17 18 19 20 21 22 23 24 25 26 27 28 29 30 31 32 33 34 35 36 37 38 39 40 41 42 43 44 45 46 47 48 49 50

943
ASUS43 KFSD 221210
RWRSD

WEATHER ROUNDUP FOR SOUTH DAKOTA
NATIONAL WEATHER SERVICE SIOUX FALLS SD
600 AM CST WED FEB 22 2017

NOTE: "FAIR" INDICATES FEW OR NO CLOUDS BELOW 12,000 FEET WITH NO
SIGNIFICANT WEATHER AND/OR OBSTRUCTIONS TO VISIBILITY.


SDZ001>005-009-010-012>017-221300-
NORTHWEST AND NORTH CENTRAL SOUTH DAKOTA

CITY           SKY/WX    TMP DP  RH WIND       PRES   REMARKS
BUFFALO          N/A     36  34  92 W9        29.63R
FAITH            N/A     42  35  76 W25G33    29.65R
MOBRIDGE       CLOUDY    37  33  85 N12       29.61F
$$

SDZ012>016-024>037-041>051-057-063-072>074-221300-
SOUTHWEST AND SOUTH CENTRAL SOUTH DAKOTA

CITY           SKY/WX    TMP DP  RH WIND       PRES   REMARKS
RAPID CTY ARPT PTCLDY    44  32  62 NW10      29.70R
PIERRE         CLOUDY    46  37  71 W10       29.62R
CUSTER         PTCLDY    35  25  66 W9        29.75R WCI  28
ELLSWORTH AFB  CLOUDY    46  34  61 W13       29.69R
PHILIP         MOCLDY    47  37  68 W13       29.66S
PINE RIDGE     MOCLDY    41  36  82 N3        29.76R
SPEARFISH      FAIR      45  32  61 SW15G22   29.72S
WINNER         FAIR      47  37  68 S9        29.66F
$$

SDZ004>011-016>023-039-040-221300-
NORTHEAST SOUTH DAKOTA

CITY           SKY/WX    TMP DP  RH WIND       PRES   REMARKS
ABERDEEN       CLOUDY    36  32  85 NW3       29.66R
WATERTOWN      MOCLDY    38  37  97 SW7       29.61R
BROOKINGS      CLOUDY    38  35  89 CALM      29.60S
SISSETON         N/A     36  36 100 NW7       29.62R
$$

SDZ017-020-022-023-036>040-048>070-221300-
SOUTHEAST SOUTH DAKOTA

CITY           SKY/WX    TMP DP  RH WIND       PRES   REMARKS
SIOUX FALLS    PTCLDY    37  33  85 W3        29.61R
HURON          LGT RAIN  44  41  89 S7        29.63S
CHAMBERLAIN    LGT RAIN  45  40  85 N6        29.66F
MITCHELL       CLOUDY    45  38  76 W12       29.64R
YANKTON        CLEAR     46  34  61 W12       29.62R
$$

ABBREVIATIONS USED IN REMARKS
   TC - TEMPERATURE IN CELSIUS
  WCI - WIND CHILL INDEX
   HX - HEAT INDEX
  VSB - VISIBILITY





USA.gov is the U.S. government's official web portal to all federal, state and local government web resources and services.